National Weather Service Raw Text Product

Displaying AFOS PIL: RWRMI Received: 2017-12-11 00:00 UTC


530 
ASUS43 KDTX 110001
RWRMI 
MICHIGAN HOURLY REGIONAL WEATHER ROUNDUP
NATIONAL WEATHER SERVICE DETROIT/PONTIAC MI
700 PM EST SUN DEC 10 2017

NOTE: "FAIR" INDICATES FEW OR NO CLOUDS BELOW 12,000 FEET WITH NO
SIGNIFICANT WEATHER AND/OR OBSTRUCTION TO VISIBILITY.

MIZ047>049-052>055-059>063-066>070-074>076-081>083-110100-
SOUTHEAST LOWER MICHIGAN
  
CITY           SKY/WX    TMP DP  RH WIND       PRES   REMARKS
ADRIAN         CLOUDY    28  20  71 W6        29.95R WCI  22          
6HR MIN TEMP:  24; 6HR MAX TEMP:  28;                                

ALMA           CLOUDY    27  26  96 W7        29.93R WCI  19          
6HR MIN TEMP:  26; 6HR MAX TEMP:  27;                                

ANN ARBOR      CLOUDY    27  21  78 S10       29.92R WCI  17          
BAD AXE        FLURRIES  25  23  91 W8        29.88R WCI  16          
6HR MIN TEMP:  25; 6HR MAX TEMP:  26;                                

CARO           FLURRIES  25  23  92 SW8       29.90R WCI  17          
DETROIT CITY   CLOUDY    27  19  72 W9        29.93S WCI  18          
6HR MIN TEMP:  25; 6HR MAX TEMP:  27;                                

DETROIT        CLOUDY    29  20  69 SW12      29.94S WCI  19          
6HR MIN TEMP:  26; 6HR MAX TEMP:  29; 6HR PCP: TRACE;                

FLINT          CLOUDY    25  22  88 W8        29.92R WCI  16          
6HR MIN TEMP:  24; 6HR MAX TEMP:  25;                                

GROSSE ILE     CLOUDY    29  22  74 SW8       29.93S WCI  21          
6HR MIN TEMP:  26; 6HR MAX TEMP:  29;                                

HILLSDALE      CLOUDY    28  21  74 W7        29.91R WCI  21          
HOWELL         CLOUDY    26  24  91 W7        29.91R FOG     WCI  18  
6HR MIN TEMP:  25; 6HR MAX TEMP:  27;                                


CITY           SKY/WX    TMP DP  RH WIND       PRES   REMARKS
JACKSON        CLOUDY    27  20  75 SW12      29.92R WCI  17          
6HR MIN TEMP:  25; 6HR MAX TEMP:  27;                                

LAMBERTVILLE   CLOUDY    28  21  73 SW3       29.95S                  
6HR MIN TEMP:  26; 6HR MAX TEMP:  29;                                

LANSING        CLOUDY    26  24  92 W8        29.93R WCI  18          
6HR MIN TEMP:  25; 6HR MAX TEMP:  26;                                

LAPEER         FLURRIES  25  22  87 W7        29.91R WCI  18          
6HR MIN TEMP:  25; 6HR MAX TEMP:  27;                                

MASON          CLOUDY    28  21  75 W3        29.92R                  
6HR MIN TEMP:  26; 6HR MAX TEMP:  28;                                

MT. CLEMENS    CLOUDY    27  22  82 W13       29.91R WCI  16          
6HR MIN TEMP:  26; 6HR MAX TEMP:  27; 6HR PCP: TRACE;                

PONTIAC        CLOUDY    25  23  92 SW6       29.90R WCI  18          
6HR MIN TEMP:  25; 6HR MAX TEMP:  26; 6HR PCP: TRACE;                

PORT HOPE        N/A     27  23  85 SW6       29.86R WCI  20          
6HR MIN TEMP:  26; 6HR MAX TEMP:  28; 6HR PCP:  0.01;                

PORT HURON     FLURRIES  25  19  80 SW6       29.91S WCI  18          
TRI CITIES     CLOUDY    26  26 100 W7        29.91R WCI  18          
6HR MIN TEMP:  26; 6HR MAX TEMP:  28; 6HR PCP: TRACE;                

MIDLAND        CLOUDY    27  24  89 W6        29.90R WCI  21          
6HR MIN TEMP:  27; 6HR MAX TEMP:  29;                                

TROY           CLOUDY    28  22  77 SW6       29.94S WCI  21          
SAGINAW HB     LGT SNOW  27  25  93 SW8       29.91R WCI  18          
$$
MIZ043>046-050>051-056>058-064>065-071>073-077>080-110100-
SOUTHWEST LOWER MICHIGAN
  
CITY           SKY/WX    TMP DP  RH WIND       PRES   REMARKS
BATTLE CREEK   CLOUDY    28  24  85 W7        29.94R WCI  21          
6HR MIN TEMP:  24; 6HR MAX TEMP:  28;                                

BENTON HARBOR  CLOUDY    32  23  69 NW13G20   29.98R WCI  22          
6HR MIN TEMP:  28; 6HR MAX TEMP:  32;                                

BIG RAPIDS     CLOUDY    25  20  83 W5        29.92R WCI  19          
6HR MIN TEMP:  25; 6HR MAX TEMP:  26;                                

COLDWATER      CLOUDY    29  23  78 W8        29.94R WCI  21          
6HR MIN TEMP:  26; 6HR MAX TEMP:  29;                                

FREMONT        CLOUDY    26  21  81 CALM      29.95R                  
6HR MIN TEMP:  26; 6HR MAX TEMP:  28;                                

HOLLAND        CLOUDY    29  22  75 N9        29.97R WCI  20          
6HR MIN TEMP:  26; 6HR MAX TEMP:  31; 6HR PCP: TRACE;                

GRAND RAPIDS   CLOUDY    28  23  81 NW13      29.95R WCI  17          
6HR MIN TEMP:  25; 6HR MAX TEMP:  28; 6HR PCP: TRACE;                

IONIA          CLOUDY    27  24  88 W6        29.93R WCI  20          
6HR MIN TEMP:  26; 6HR MAX TEMP:  27;                                

KALAMAZOO      CLOUDY    30  23  75 W7        29.95R WCI  23          
6HR MIN TEMP:  26; 6HR MAX TEMP:  30;                                

LUDINGTON      CLOUDY    29  20  67 N10G18    29.95R WCI  20          
6HR MIN TEMP:  26; 6HR MAX TEMP:  29;                                

MARSHALL       CLOUDY    27  23  84 SW8       29.93R WCI  19          
6HR MIN TEMP:  24; 6HR MAX TEMP:  27;                                

MOUNT PLEASANT MOCLDY    27  22  83 W5        29.91R WCI  21          
6HR MIN TEMP:  27; 6HR MAX TEMP:  28;                                

MUSKEGON       FLURRIES  28  19  69 N3        29.98R                  
6HR MIN TEMP:  28; 6HR MAX TEMP:  31; 6HR PCP: TRACE;                

SOUTH HAVEN    CLOUDY    32  25  74 NW13      29.97R WCI  22          
$$
MIZ016>042-110100-
NORTHERN LOWER MICHIGAN
  
CITY           SKY/WX    TMP DP  RH WIND       PRES   REMARKS
ALPENA         CLOUDY    22  15  75 N15       29.91R WCI   9          
6HR MIN TEMP:  22; 6HR MAX TEMP:  28; 6HR PCP:  0.02;                

BEAVER ISLAND  CLOUDY    18   9  66 NW12G17   29.99R WCI   5          
6HR MIN TEMP:  18; 6HR MAX TEMP:  26;                                

BELLAIRE       CLOUDY    23  17  76 N6        29.96R WCI  16          
6HR MIN TEMP:  23; 6HR MAX TEMP:  29;                                

CADILLAC       LGT SNOW  23  19  85 NW10G21   29.89R WCI  13          
CHARLEVOIX     CLOUDY    20  12  69 NW17G25   30.00R WCI   6          
6HR MIN TEMP:  20; 6HR MAX TEMP:  29;                                

FRANKFORT      CLOUDY    28  19  70 N12G17    29.97R WCI  17          
GAYLORD        FLURRIES  18  11  74 NW9       29.89R WCI   7          
6HR MIN TEMP:  18; 6HR MAX TEMP:  24; 6HR PCP:  0.01;                

GRAYLING       FLURRIES  21  15  76 NW12G18   29.90R WCI   9          
6HR MIN TEMP:  21; 6HR MAX TEMP:  27;                                

HARBOR SPRINGS CLOUDY    18   9  68 N8        29.96R WCI   7          
HOUGHTON LAKE  CLOUDY    24  18  77 N8        29.89R WCI  15          
6HR MIN TEMP:  24; 6HR MAX TEMP:  25; 6HR PCP:  0.01;                

MANISTEE       FLURRIES  27  22  81 NE6       29.95R WCI  20          
OSCODA         FLURRIES  25  19  78 N7        29.89R WCI  17          
6HR MIN TEMP:  25; 6HR MAX TEMP:  29;                                

PELLSTON       CLOUDY    17   8  67 N13       29.97R WCI   4          
6HR MIN TEMP:  17; 6HR MAX TEMP:  26; 6HR PCP: TRACE;                

ROGERS CITY    CLOUDY    20  13  73 NW14G25   29.93R WCI   7          
TRAVERSE CITY  FLURRIES  26  16  65 N14G25    29.95R WCI  14          
6HR MIN TEMP:  26; 6HR MAX TEMP:  29; 6HR PCP: TRACE;                

$$
MIZ007>008-015-110100-
EASTERN UPPER MICHIGAN
  
CITY           SKY/WX    TMP DP  RH WIND       PRES   REMARKS
KINROSS        FLURRIES  11   4  73 N7        29.95R WCI   0          
6HR MIN TEMP:  11; 6HR MAX TEMP:  20;                                

MACKINAC ISLAN MOCLDY    17   6  62 NW18G25   29.95R WCI   0          
6HR MIN TEMP:  16; 6HR MAX TEMP:  26;                                

NEWBERRY       LGT SNOW  13  10  86 W5        29.96R WCI   5          
6HR MIN TEMP:  13; 6HR MAX TEMP:  19;                                

S. S. MARIE    CLOUDY    11   1  64 NE6       29.95R WCI   1          
6HR MIN TEMP:  11; 6HR MAX TEMP:  19; 6HR PCP: TRACE;                

MUNISING         N/A     21  15  78 N16       29.99R WCI   7          
6HR MIN TEMP:  20; 6HR MAX TEMP:  24;                                

$$
MIZ004>006-011>014-085-110100-
CENTRAL UPPER MICHIGAN
  
CITY           SKY/WX    TMP DP  RH WIND       PRES   REMARKS
MANISTIQUE     CLOUDY    16   5  62 CALM      29.99R                  
6HR MIN TEMP:  16; 6HR MAX TEMP:  24;                                

ESCANABA       PTCLDY    16   7  67 NW9       30.02R WCI   4          
6HR MIN TEMP:  16; 6HR MAX TEMP:  27; 6HR PCP: TRACE;                

MENOMINEE      CLOUDY    22  15  75 N9        30.03R WCI  12          
6HR MIN TEMP:  22; 6HR MAX TEMP:  29; 6HR PCP: TRACE;                

SAWYER-GWINN   CLOUDY    14   7  73 NW9       29.97S WCI   2          
$$
MIZ001>003-009>011-084-110100-
WESTERN UPPER MICHIGAN
  
CITY           SKY/WX    TMP DP  RH WIND       PRES   REMARKS
IRON MOUNTAIN  CLOUDY    18  10  71 N8        29.98R WCI   8          
6HR MIN TEMP:  18; 6HR MAX TEMP:  22; 6HR PCP: TRACE;                

HOUGHTON       CLEAR     10   0  63 NW6       29.99R WCI   0          
6HR MIN TEMP:  10; 6HR MAX TEMP:  15; 6HR PCP: TRACE;                

COPPER HARBOR    N/A     17  10  74 N16       30.02R WCI   2          
6HR MIN TEMP:  15; 6HR MAX TEMP:  17;                                

IRONWOOD       CLOUDY    17  11  77 SW5       30.01S WCI  10          
6HR MIN TEMP:  17; 6HR MAX TEMP:  21;                                

$$

ABBREVIATIONS USED IN REMARKS
   TC - TEMPERATURE IN CELSIUS
  WCI - WIND CHILL INDEX
   HX - HEAT INDEX
  VSB - VISIBILITY